When you browse on this site, cookies collect data to enhance your experience and personalize the content and advertising you see.
Visit our Privacy Policy to learn more. By continuing to use the site, you agree to this use of cookies and data.
  • In Hungary
  • List of Countries
  • For 7 days
  • Water Temperature
  • Weather Map
  • News
  • Weather Widgets
  • user-avatar
    Login

    Hourly Weather Augustów

    Today, 13 December, Friday

    Time Temperature Precipitation Wind Pressure Humidity
    00:00 -1°C° 0 mm 3 mps 742 mmHg 94%
    01:00 -2°C° 0 mm 4 mps 742 mmHg 94%
    02:00 -1°C° 0 mm 3 mps 742 mmHg 96%
    03:00 -1°C° 0 mm 4 mps 741 mmHg 95%
    04:00 -1°C° 0 mm 4 mps 740 mmHg 94%
    05:00 -1°C° 0 mm 5 mps 740 mmHg 92%
    06:00 -1°C° 0 mm 5 mps 739 mmHg 91%
    07:00 -1°C° 0 mm 5 mps 739 mmHg 90%
    08:00 -1°C° 0 mm 5 mps 739 mmHg 89%
    09:00 0°C° 0 mm 5 mps 738 mmHg 87%
    10:00 0°C° 0 mm 5 mps 737 mmHg 85%
    11:00 +1°C° 0 mm 6 mps 737 mmHg 83%
    12:00 +1°C° 0 mm 6 mps 737 mmHg 82%
    13:00 +1°C° 0 mm 6 mps 736 mmHg 81%
    14:00 +1°C° 0 mm 6 mps 736 mmHg 80%
    15:00 +1°C° 0 mm 6 mps 735 mmHg 81%
    16:00 +1°C° 0 mm 6 mps 735 mmHg 82%
    17:00 +1°C° 0 mm 6 mps 734 mmHg 83%
    18:00 0°C° 0.1 mm 7 mps 734 mmHg 85%
    19:00 0°C° 0.1 mm 7 mps 734 mmHg 86%
    20:00 0°C° 0.1 mm 7 mps 734 mmHg 88%
    21:00 0°C° 0 mm 7 mps 734 mmHg 87%
    22:00 0°C° 0 mm 7 mps 734 mmHg 86%
    23:00 0°C° 0 mm 7 mps 734 mmHg 85%

    Tomorrow, 14 December, Saturday

    Time Temperature Precipitation Wind Pressure Humidity
    00:00 0°C° 0 mm 7 mps 734 mmHg 85%
    01:00 0°C° 0 mm 7 mps 735 mmHg 85%
    02:00 +1°C° 0 mm 6 mps 735 mmHg 85%
    03:00 +2°C° 0 mm 6 mps 735 mmHg 85%
    04:00 +2°C° 0 mm 6 mps 735 mmHg 86%
    05:00 +2°C° 0 mm 6 mps 734 mmHg 86%
    06:00 +2°C° 0 mm 6 mps 735 mmHg 86%
    07:00 +2°C° 0 mm 6 mps 735 mmHg 86%
    08:00 +2°C° 0 mm 7 mps 735 mmHg 86%
    09:00 +2°C° 0 mm 7 mps 735 mmHg 86%
    10:00 +2°C° 0 mm 7 mps 736 mmHg 85%
    11:00 +3°C° 0 mm 7 mps 736 mmHg 84%
    12:00 +3°C° 0 mm 7 mps 736 mmHg 82%
    13:00 +3°C° 0 mm 7 mps 736 mmHg 80%
    14:00 +3°C° 0 mm 7 mps 736 mmHg 78%
    15:00 +3°C° 0.1 mm 6 mps 736 mmHg 81%
    16:00 +3°C° 0.1 mm 6 mps 736 mmHg 84%
    17:00 +2°C° 0.1 mm 6 mps 736 mmHg 87%
    18:00 +2°C° 0 mm 5 mps 736 mmHg 87%
    19:00 +2°C° 0 mm 5 mps 736 mmHg 88%
    20:00 +2°C° 0 mm 5 mps 736 mmHg 88%
    21:00 +2°C° 0 mm 5 mps 736 mmHg 88%
    22:00 +1°C° 0 mm 6 mps 736 mmHg 89%
    23:00 +1°C° 0 mm 6 mps 735 mmHg 90%

    Day after tomorrow, 15 December, Sunday

    Time Temperature Precipitation Wind Pressure Humidity
    00:00 +2°C° 0.2 mm 6 mps 736 mmHg 87%
    01:00 +2°C° 0.2 mm 7 mps 736 mmHg 84%
    02:00 +2°C° 0.2 mm 7 mps 737 mmHg 82%
    03:00 +2°C° 0 mm 7 mps 738 mmHg 80%
    04:00 +1°C° 0 mm 6 mps 738 mmHg 78%
    05:00 -1°C° 0 mm 6 mps 739 mmHg 76%
    06:00 -1°C° 0 mm 6 mps 739 mmHg 79%
    07:00 0°C° 0 mm 5 mps 740 mmHg 81%
    08:00 0°C° 0 mm 5 mps 740 mmHg 84%
    09:00 0°C° 0 mm 5 mps 741 mmHg 83%
    10:00 +1°C° 0 mm 5 mps 741 mmHg 81%
    11:00 +1°C° 0 mm 5 mps 742 mmHg 80%
    12:00 +2°C° 0 mm 5 mps 742 mmHg 78%
    13:00 +2°C° 0 mm 5 mps 741 mmHg 77%
    14:00 +3°C° 0 mm 5 mps 741 mmHg 75%
    15:00 +3°C° 0.6 mm 6 mps 741 mmHg 80%
    16:00 +3°C° 0.6 mm 6 mps 741 mmHg 85%
    17:00 +3°C° 0.6 mm 7 mps 740 mmHg 90%
    18:00 +3°C° 0.2 mm 7 mps 741 mmHg 87%
    19:00 +4°C° 0.2 mm 7 mps 741 mmHg 83%
    20:00 +5°C° 0.2 mm 7 mps 742 mmHg 79%
    21:00 +4°C° 0 mm 6 mps 742 mmHg 78%
    22:00 +3°C° 0 mm 6 mps 743 mmHg 78%
    23:00 +2°C° 0 mm 5 mps 744 mmHg 77%

    16 December, Monday

    Time Temperature Precipitation Wind Pressure Humidity
    00:00 +1°C° 0 mm 5 mps 745 mmHg 77%
    01:00 +1°C° 0 mm 5 mps 745 mmHg 76%
    02:00 +1°C° 0 mm 5 mps 746 mmHg 75%
    03:00 0°C° 0 mm 5 mps 746 mmHg 77%
    04:00 0°C° 0 mm 5 mps 747 mmHg 79%
    05:00 -1°C° 0 mm 4 mps 747 mmHg 81%
    06:00 -1°C° 0 mm 4 mps 748 mmHg 80%
    07:00 -1°C° 0 mm 4 mps 748 mmHg 80%
    08:00 -1°C° 0 mm 4 mps 748 mmHg 80%
    09:00 -1°C° 0 mm 4 mps 749 mmHg 78%
    10:00 0°C° 0 mm 4 mps 749 mmHg 77%
    11:00 +1°C° 0 mm 3 mps 750 mmHg 75%
    12:00 +2°C° 0 mm 3 mps 750 mmHg 74%
    13:00 +2°C° 0 mm 3 mps 749 mmHg 74%
    14:00 +3°C° 0 mm 3 mps 749 mmHg 73%
    15:00 +3°C° 0 mm 3 mps 749 mmHg 79%
    16:00 +2°C° 0 mm 3 mps 749 mmHg 85%
    17:00 +2°C° 0 mm 3 mps 749 mmHg 91%
    18:00 +2°C° 0 mm 3 mps 749 mmHg 91%
    19:00 +3°C° 0 mm 3 mps 749 mmHg 91%
    20:00 +3°C° 0 mm 3 mps 749 mmHg 92%
    21:00 +3°C° 0.1 mm 3 mps 749 mmHg 90%
    22:00 +3°C° 0.1 mm 3 mps 749 mmHg 89%
    23:00 +4°C° 0.1 mm 3 mps 749 mmHg 88%

    17 December, Tuesday

    Time Temperature Precipitation Wind Pressure Humidity
    00:00 +3°C° 0 mm 3 mps 749 mmHg 88%
    01:00 +3°C° 0 mm 3 mps 748 mmHg 88%
    02:00 +3°C° 0 mm 3 mps 748 mmHg 89%
    03:00 +3°C° 0 mm 3 mps 748 mmHg 90%
    04:00 +3°C° 0 mm 3 mps 748 mmHg 91%
    05:00 +3°C° 0 mm 2 mps 748 mmHg 92%
    06:00 +2°C° 0 mm 3 mps 748 mmHg 93%
    07:00 +2°C° 0 mm 3 mps 748 mmHg 93%
    08:00 +2°C° 0 mm 3 mps 748 mmHg 94%
    09:00 +2°C° 0 mm 3 mps 748 mmHg 92%
    10:00 +3°C° 0 mm 3 mps 748 mmHg 91%
    11:00 +3°C° 0 mm 3 mps 748 mmHg 90%
    12:00 +4°C° 0 mm 3 mps 748 mmHg 88%
    13:00 +4°C° 0 mm 3 mps 748 mmHg 86%
    14:00 +5°C° 0 mm 3 mps 747 mmHg 84%
    15:00 +4°C° 0 mm 3 mps 747 mmHg 86%
    16:00 +4°C° 0 mm 3 mps 747 mmHg 88%
    17:00 +3°C° 0 mm 3 mps 747 mmHg 90%
    18:00 +3°C° 0 mm 3 mps 747 mmHg 90%
    19:00 +3°C° 0 mm 3 mps 747 mmHg 90%
    20:00 +3°C° 0 mm 3 mps 747 mmHg 91%
    21:00 +3°C° 0 mm 3 mps 747 mmHg 91%
    22:00 +3°C° 0 mm 3 mps 747 mmHg 91%
    23:00 +4°C° 0 mm 2 mps 747 mmHg 91%

    18 December, Wednesday

    Time Temperature Precipitation Wind Pressure Humidity
    00:00 +4°C° 0 mm 2 mps 747 mmHg 91%
    01:00 +4°C° 0 mm 2 mps 747 mmHg 92%
    02:00 +4°C° 0 mm 2 mps 747 mmHg 92%
    03:00 +3°C° 0 mm 2 mps 747 mmHg 92%
    04:00 +3°C° 0 mm 2 mps 747 mmHg 93%
    05:00 +3°C° 0 mm 2 mps 747 mmHg 93%
    06:00 +3°C° 0 mm 2 mps 747 mmHg 93%
    07:00 +3°C° 0 mm 2 mps 747 mmHg 93%
    08:00 +3°C° 0 mm 2 mps 747 mmHg 93%
    09:00 +3°C° 0 mm 3 mps 747 mmHg 92%
    10:00 +3°C° 0 mm 3 mps 747 mmHg 91%
    11:00 +4°C° 0 mm 3 mps 747 mmHg 89%
    12:00 +5°C° 0 mm 3 mps 747 mmHg 88%
    13:00 +5°C° 0 mm 3 mps 747 mmHg 86%
    14:00 +7°C° 0 mm 3 mps 747 mmHg 85%
    15:00 +5°C° 0 mm 3 mps 747 mmHg 87%
    16:00 +4°C° 0 mm 3 mps 746 mmHg 90%
    17:00 +4°C° 0 mm 3 mps 746 mmHg 93%
    18:00 +4°C° 0 mm 4 mps 746 mmHg 93%
    19:00 +4°C° 0 mm 4 mps 746 mmHg 94%
    20:00 +4°C° 0 mm 4 mps 746 mmHg 95%
    21:00 +4°C° 0 mm 4 mps 746 mmHg 95%
    22:00 +3°C° 0 mm 4 mps 746 mmHg 94%
    23:00 +3°C° 0 mm 3 mps 746 mmHg 94%
    Show more